TITAN 3C TRANSTAGE DEB, 20672

Orbit data source: Space-Track

TITAN 3C TRANSTAGE DEB, 20672 is space debris in HEO originally from a launch on Tue, 21 Dec 1965 UTC launched from the Air Force Eastern Test Range (AFETR). Debris objects in space refer to the collection of defunct objects orbiting the Earth. Examples of debris include non-operational satellites, rocket bodies, and fragments generated from explosions, collisions, or faulty payload assembly.

Loading next visibility...
Identifier
20672, 1965-108AD
Orbit
HEO
Country
Flag of USUS
Related business
Manufacturer
Unknown
Mission
Spacecraft
Bus & Motor
Unknown
Mass
Unknown
Launch date (UTC)
1965-12-21 (60 years ago)
Launch vehicle
Unknown
Launch site
Air Force Eastern Test Range (AFETR)
Object type
Payload
Rocket body
Debris
Shape & HBR
Unknown shape, 0.1 m
Radar Cross Section
Small (<0.1 m²)

Expand to show TLE details & history
Last TLE update: 1 week ago

TLE from 1 week ago
0 TITAN 3C TRANSTAGE DEB
1 20672U 65108AD  25302.72341332 -.00000069  00000-0 -49208-3 0  9997
2 20672  27.1311 307.6931 6799356 149.2894   2.5633  2.70042717 41290
Epoch: 2025-10-29T17:21Z
TLE epoch observation values (Epoch: 2025-10-29T17:21:42.910Z)
Latitude
5.53082°
Longitude
178.13929°
Altitude
753.108 km
Speed
9.669 km/s
True Right ascension
07h 47m 26s
True Declination
5° 29' 52"
Sunlit
Object was in daylight at epoch
Visualization orbit readout
Latitude
Unknown
Longitude
Unknown
Altitude
Unknown
Speed
Unknown
Apparent Right ascension
Unknown
Apparent Declination
Unknown
Sunlit
N/A
Visualization observer readout
Local Sidereal Time
23:47:56
Azimuth
Unknown
Elevation
Unknown
Doppler factor
Unknown
Orbital elements
Apogee altitude
30,221.5 km
Perigee altitude
594.893 km
Semi-major axis
21,786.333 km
Eccentricity
0.67994
Inclination
27.1311°
RAAN
307.6931°
Arg. of periapsis
149.2894°
True anomaly
18.10105°
Mean anomaly
2.5633°
Eccentric anomaly
7.95447°
Mean motion
0.67494 °/min
Orbital period
533.38 mins
BSTAR
-0.00049208
Loading maneuver chart data...
Computing Atmospheric mass density...

Documentation

Showing up to 5 results
|